This demonstration page uses our WeatherBlox Daily Observations layout. Learn more.

Left ArrowRight Arrow

Hourly Observations for May 17, 2020

Temp ( °F °C ) Dew Point ( °F °C ) Humidity (%) Winds ( mph kmh ) Pressure ( in mb ) Visibility ( mi km ) Precip ( " mm )
12:52 am 00:52 Cloudy 55 12.8 52 11.1 90 90 NW 12 19 29.86 1011 10 16 0.00 0.00
1:14 am 01:14 Cloudy 55 12.8 52 11.1 90 90 NW 12 19 29.87 1012 10 16 0.00 0.00
1:52 am 01:52 Cloudy 55 12.8 52 11.1 90 90 NW 12 19 29.86 1011 10 16 0.00 0.00
2:52 am 02:52 Cloudy 56 13.3 52 11.1 87 87 NW 14 22 29.85 1011 10 16 0.00 0.00
3:04 am 03:04 Cloudy 56 13.3 52 11.1 87 87 NW 15 24 29.87 1011 10 16 0.00 0.00
3:52 am 03:52 Cloudy 56 13.3 52 11.1 87 87 NNW 16 26 29.84 1011 10 16 0.00 0.00
4:52 am 04:52 Cloudy 56 13.3 52 11.1 87 87 NW 15 24 29.84 1011 10 16 0.00 0.00
5:52 am 05:52 Cloudy 55 12.8 51 10.6 87 87 NW 14 22 29.84 1011 10 16 0.00 0.00
6:52 am 06:52 Partly Cloudy 54 12.2 50 10 87 87 NW 15 24 29.86 1011 10 16 0.00 0.00
7:52 am 07:52 Mostly Cloudy 57 13.9 51 10.6 81 81 NW 17 28 29.86 1011 10 16 0.00 0.00
8:52 am 08:52 Mostly Cloudy 57 13.9 50 10 78 78 WNW 17 28 29.87 1012 10 16 0.00 0.00
9:16 am 09:16 Mostly Cloudy 57 13.9 50 10 78 78 NW 21 33 29.88 1012 10 16 0.00 0.00
9:52 am 09:52 Cloudy 58 14.4 49 9.4 72 72 NW 20 31 29.86 1011 10 16 0.00 0.00
10:27 am 10:27 Mostly Cloudy 59 15 49 9.4 69 69 NW 22 35 29.85 1011 10 16 0.00 0.00
10:52 am 10:52 Cloudy 57 13.9 49 9.4 74 74 NW 21 33 29.86 1011 10 16 0.00 0.00
11:52 am 11:52 Cloudy 57 13.9 50 10 78 78 NW 22 35 29.86 1011 10 16 0.00 0.00
12:52 pm 12:52 Cloudy 57 13.9 49 9.4 74 74 NNW 24 39 29.87 1011 10 16 0.00 0.00
1:52 pm 13:52 Cloudy 57 13.9 49 9.4 74 74 NNW 21 33 29.88 1012 10 16 0.00 0.00
2:52 pm 14:52 Cloudy 57 13.9 49 9.4 74 74 NNW 24 39 29.88 1012 10 16 0.00 0.00
3:52 pm 15:52 Cloudy with Drizzle 55 12.8 51 10.6 87 87 NW 18 30 29.89 1012 3 5 0.00 0.00
4:52 pm 16:52 Cloudy 57 13.9 51 10.6 81 81 NNW 14 22 29.89 1012 10 16 0.00 0.00
5:52 pm 17:52 Cloudy 57 13.9 50 10 78 78 NNW 17 28 29.88 1012 10 16 0.00 0.00
6:52 pm 18:52 Cloudy 57 13.9 50 10 78 78 NNW 13 20 29.88 1012 10 16 0.00 0.00
7:52 pm 19:52 Mostly Cloudy 55 12.8 51 10.6 87 87 NNW 18 30 29.88 1012 10 16 0.00 0.00
8:52 pm 20:52 Mostly Cloudy 54 12.2 50 10 87 87 NNW 17 28 29.90 1013 10 16 0.00 0.00
9:52 pm 21:52 Cloudy 54 12.2 50 10 87 87 NNW 17 28 29.93 1013 10 16 0.00 0.00
10:52 pm 22:52 Cloudy 54 12.2 50 10 87 87 NNW 20 31 29.93 1014 10 16 0.00 0.00
11:21 pm 23:21 Cloudy 54 12.2 49 9.4 83 83 NNW 17 28 29.93 1014 10 16 0.00 0.00
11:52 pm 23:52 Cloudy 54 12.2 49 9.4 83 83 NNW 16 26 29.93 1013 10 16 0.00 0.00

Powered by AerisWeather